{"data":{"norad_id":63163,"intl_designator":"2025-046E","name":"QIANFAN-77","alt_names":[],"object_type":"PAYLOAD","status":"ACTIVE","operator":null,"country":"PRC","launch_date":"2025-03-11","launch_site_code":"WSC","launch_vehicle":null,"mission":null,"orbit_class":"UNKNOWN","rcs_meters":null,"size_class":null,"mass_kg":null,"dimensions":null,"purposes":[],"wikipedia_slug":null,"has_3d_model":false,"image_url":null,"decayed_at":null,"tle_current":{"epoch":"2026-09-22T20:23:52.469376Z","epoch_age_seconds":108274,"freshness":"FRESH","line1":"1 63163U 25046E   26265.84991284  .00000123  00000+0  79910-4 0  9997","line2":"2 63163  88.9647 286.2913 0012536 274.0319  85.9425 13.96247519 88092","mean_motion":13.96247519,"eccentricity":0.0012536,"inclination_deg":88.9647,"raan_deg":286.2913,"arg_perigee_deg":274.0319,"mean_anomaly_deg":85.9425,"bstar":7.991e-5,"rev_number":8809,"period_min":103.13357627531,"perigee_km":897.68599833616,"apogee_km":915.9508385613,"semimajor_km":7284.9554184487,"source":"CELESTRAK","updated_at":"2026-09-23T09:00:21.847125Z"}}}